User: anonymous   Login
Location: Treviso
(45.6669°N, 12.2430°E)
Time: 18:35:49
(UTC+02:00)
Language:

CUBESAT XI-V - Orbit

View from above orbital plane
View from above orbital plane
View from above satellite
View from above satellite

Ground track
Ground track

The orbit data is extracted from the following two-line orbital elements,

1 28895U 05043F   19138.60851349  .00000123  00000-0  32347-4 0  9991
2 28895  97.9545 282.4135 0018261  90.3722 269.9574 14.63660336722943
Epoch (UTC): 18 May 2019 14:36:15
Eccentricity: 0.0018261
inclination: 97.9545°
perigee height: 668 km
apogee height: 694 km
right ascension of ascending node: 282.4135°
argument of perigee: 90.3722°
revolutions per day: 14.63660336
mean anomaly at epoch: 269.9574°
orbit number at epoch: 72294

The dashed part of the orbit path shows where the satellite is in the earth's shadow,  

DLR